Year,Month,Day,Hour,Minute,Value (Times are PST for temperature in C)
2020,07,10,07,44,15.30
2020,07,10,07,45,15.30
2020,07,10,07,46,15.30
2020,07,10,07,47,15.30
2020,07,10,07,48,15.30
2020,07,10,07,49,15.30
2020,07,10,07,50,15.30
2020,07,10,07,51,15.30
2020,07,10,07,52,15.30
2020,07,10,07,53,15.20
2020,07,10,07,54,15.20
2020,07,10,07,55,15.20
2020,07,10,07,56,15.20
2020,07,10,07,57,15.20
2020,07,10,07,58,15.20
2020,07,10,07,59,15.20
2020,07,10,08,00,15.20
2020,07,10,08,01,15.20
2020,07,10,08,02,15.20
2020,07,10,08,03,15.20
2020,07,10,08,04,15.20
2020,07,10,08,05,15.20
2020,07,10,08,06,15.20
2020,07,10,08,07,15.20
2020,07,10,08,08,15.20
2020,07,10,08,09,15.30
2020,07,10,08,10,15.30
2020,07,10,08,11,15.30
2020,07,10,08,12,15.30
2020,07,10,08,13,15.30
2020,07,10,08,14,15.30
2020,07,10,08,15,15.30
2020,07,10,08,16,15.30
2020,07,10,08,17,15.30
2020,07,10,08,18,15.30
2020,07,10,08,19,15.30
2020,07,10,08,20,15.40
2020,07,10,08,21,15.40
2020,07,10,08,22,15.40
2020,07,10,08,23,15.40
2020,07,10,08,24,15.40
2020,07,10,08,25,15.40
2020,07,10,08,26,15.40
2020,07,10,08,27,15.50
2020,07,10,08,28,15.50
2020,07,10,08,29,15.50
2020,07,10,08,30,15.50
2020,07,10,08,31,15.50
2020,07,10,08,32,15.60
2020,07,10,08,33,15.60
2020,07,10,08,34,15.60
2020,07,10,08,35,15.60
2020,07,10,08,36,15.60
2020,07,10,08,37,15.60
2020,07,10,08,38,15.60
2020,07,10,08,39,15.60
2020,07,10,08,40,15.60
2020,07,10,08,41,15.60
2020,07,10,08,42,15.60
2020,07,10,08,43,15.60
2020,07,10,08,44,15.50
2020,07,10,08,45,15.50
2020,07,10,08,46,15.50
2020,07,10,08,47,15.50
2020,07,10,08,48,15.50
2020,07,10,08,49,15.50
2020,07,10,08,50,15.40
2020,07,10,08,51,15.40
2020,07,10,08,52,15.50
2020,07,10,08,53,15.50
2020,07,10,08,54,15.50
2020,07,10,08,55,15.60
2020,07,10,08,56,15.60
2020,07,10,08,57,15.70
2020,07,10,08,58,15.70
2020,07,10,08,59,15.70
2020,07,10,09,00,15.70
2020,07,10,09,01,15.70
2020,07,10,09,02,15.70
2020,07,10,09,03,15.70
2020,07,10,09,04,15.70
2020,07,10,09,05,15.70
2020,07,10,09,06,15.70
2020,07,10,09,07,15.70
2020,07,10,09,08,15.70
2020,07,10,09,09,15.70
2020,07,10,09,10,15.70
2020,07,10,09,11,15.80
2020,07,10,09,12,15.80
2020,07,10,09,13,15.90
2020,07,10,09,14,15.90
2020,07,10,09,15,15.90
2020,07,10,09,16,15.90
2020,07,10,09,17,16.00
2020,07,10,09,18,16.00
2020,07,10,09,19,16.00
2020,07,10,09,20,16.00
2020,07,10,09,21,15.90
2020,07,10,09,22,15.80
2020,07,10,09,23,15.80
2020,07,10,09,24,15.80
2020,07,10,09,25,15.80
2020,07,10,09,26,15.80
2020,07,10,09,27,15.80
2020,07,10,09,28,15.80
2020,07,10,09,29,15.80
2020,07,10,09,30,15.80
2020,07,10,09,31,15.80
2020,07,10,09,32,15.70
2020,07,10,09,33,15.70
2020,07,10,09,34,15.70
2020,07,10,09,35,15.70
2020,07,10,09,36,15.70
2020,07,10,09,37,15.70
2020,07,10,09,38,15.70
2020,07,10,09,39,15.70
2020,07,10,09,40,15.70
2020,07,10,09,41,15.70
2020,07,10,09,42,15.70
2020,07,10,09,43,15.70
2020,07,10,09,44,15.70
2020,07,10,09,45,15.80
2020,07,10,09,46,15.80
2020,07,10,09,47,15.80
2020,07,10,09,48,15.90
2020,07,10,09,49,16.00
2020,07,10,09,50,16.10
2020,07,10,09,51,16.20
2020,07,10,09,52,16.20
2020,07,10,09,53,16.20
2020,07,10,09,54,16.30
2020,07,10,09,55,16.30
2020,07,10,09,56,16.30
2020,07,10,09,57,16.40
2020,07,10,09,58,16.40
2020,07,10,09,59,16.40
2020,07,10,10,00,16.30
2020,07,10,10,01,16.40
2020,07,10,10,02,16.30
2020,07,10,10,03,16.30
2020,07,10,10,04,16.30
2020,07,10,10,05,16.30
2020,07,10,10,06,16.30
2020,07,10,10,07,16.20
2020,07,10,10,08,16.20
2020,07,10,10,09,16.20
2020,07,10,10,10,16.20
2020,07,10,10,11,16.20
2020,07,10,10,12,16.20
2020,07,10,10,13,16.20
2020,07,10,10,14,16.30
2020,07,10,10,15,16.30
2020,07,10,10,16,16.30
2020,07,10,10,17,16.40
2020,07,10,10,18,16.50
2020,07,10,10,19,16.60
2020,07,10,10,20,16.70
2020,07,10,10,21,16.70
2020,07,10,10,22,16.60
2020,07,10,10,23,16.70
2020,07,10,10,24,16.70
2020,07,10,10,25,16.70
2020,07,10,10,26,16.70
2020,07,10,10,27,16.70
2020,07,10,10,28,16.60
2020,07,10,10,29,16.60
2020,07,10,10,30,16.50
2020,07,10,10,31,16.50
2020,07,10,10,32,16.50
2020,07,10,10,33,16.50
2020,07,10,10,34,16.60
2020,07,10,10,35,16.60
2020,07,10,10,36,16.60
2020,07,10,10,37,16.60
2020,07,10,10,38,16.60
2020,07,10,10,39,16.60
2020,07,10,10,40,16.60
2020,07,10,10,41,16.70
2020,07,10,10,42,16.70
2020,07,10,10,43,16.80
2020,07,10,10,44,16.80
2020,07,10,10,45,16.80
2020,07,10,10,46,16.80
2020,07,10,10,47,16.80
2020,07,10,10,48,16.90
2020,07,10,10,49,16.90
2020,07,10,10,50,16.90
2020,07,10,10,51,16.90
2020,07,10,10,52,16.90
2020,07,10,10,53,16.90
2020,07,10,10,54,17.00
2020,07,10,10,55,17.00
2020,07,10,10,56,17.00
2020,07,10,10,57,17.10
2020,07,10,10,58,17.10
2020,07,10,10,59,17.10
2020,07,10,11,00,17.10
2020,07,10,11,01,17.10
2020,07,10,11,02,17.10
2020,07,10,11,03,17.10
2020,07,10,11,04,17.10
2020,07,10,11,05,17.10
2020,07,10,11,06,17.10
2020,07,10,11,07,17.00
2020,07,10,11,08,16.90
2020,07,10,11,09,16.80
2020,07,10,11,10,16.80
2020,07,10,11,11,16.90
2020,07,10,11,12,16.90
2020,07,10,11,13,16.90
2020,07,10,11,14,17.00
2020,07,10,11,15,17.00
2020,07,10,11,16,16.90
2020,07,10,11,17,16.80
2020,07,10,11,18,16.80
2020,07,10,11,19,16.90
2020,07,10,11,20,16.90
2020,07,10,11,21,16.90
2020,07,10,11,22,16.80
2020,07,10,11,23,16.80
2020,07,10,11,24,16.80
2020,07,10,11,25,16.90
2020,07,10,11,26,16.90
2020,07,10,11,27,16.90
2020,07,10,11,28,17.00
2020,07,10,11,29,17.00
2020,07,10,11,30,17.10
2020,07,10,11,31,17.10
2020,07,10,11,32,17.10
2020,07,10,11,33,17.00
2020,07,10,11,34,17.00
2020,07,10,11,35,17.00
2020,07,10,11,36,17.00
2020,07,10,11,37,17.00
2020,07,10,11,38,16.90
2020,07,10,11,39,16.90
2020,07,10,11,40,16.80
2020,07,10,11,41,16.80
2020,07,10,11,42,16.80
2020,07,10,11,43,16.90
2020,07,10,11,44,16.90
2020,07,10,11,45,17.00
2020,07,10,11,46,17.00
2020,07,10,11,47,17.00
2020,07,10,11,48,17.10
2020,07,10,11,49,17.20
2020,07,10,11,50,17.20
2020,07,10,11,51,17.10
2020,07,10,11,52,17.10
2020,07,10,11,53,17.10
2020,07,10,11,54,17.10
2020,07,10,11,55,17.20
2020,07,10,11,56,17.30
2020,07,10,11,57,17.40
2020,07,10,11,58,17.40
2020,07,10,11,59,17.30
2020,07,10,12,00,17.20
2020,07,10,12,01,17.20
2020,07,10,12,02,17.20
2020,07,10,12,03,17.30
2020,07,10,12,04,17.30
2020,07,10,12,05,17.30
2020,07,10,12,06,17.30
2020,07,10,12,07,17.30
2020,07,10,12,08,17.30
2020,07,10,12,09,17.30
2020,07,10,12,10,17.30
2020,07,10,12,11,17.40
2020,07,10,12,12,17.40
2020,07,10,12,13,17.40
2020,07,10,12,14,17.40
2020,07,10,12,15,17.40
2020,07,10,12,16,17.40
2020,07,10,12,17,17.40
2020,07,10,12,18,17.40
2020,07,10,12,19,17.50
2020,07,10,12,20,17.50
2020,07,10,12,21,17.40
2020,07,10,12,22,17.50
2020,07,10,12,23,17.50
2020,07,10,12,24,17.60
2020,07,10,12,25,17.60
2020,07,10,12,26,17.60
2020,07,10,12,27,17.60
2020,07,10,12,28,17.60
2020,07,10,12,29,17.60
2020,07,10,12,30,17.60
2020,07,10,12,31,17.60
2020,07,10,12,32,17.60
2020,07,10,12,33,17.60
2020,07,10,12,34,17.60
2020,07,10,12,35,17.60
2020,07,10,12,36,17.60
2020,07,10,12,37,17.70
2020,07,10,12,38,17.70
2020,07,10,12,39,17.80
2020,07,10,12,40,17.90
2020,07,10,12,41,18.00
2020,07,10,12,42,18.20
2020,07,10,12,43,18.30
2020,07,10,12,44,18.40
2020,07,10,12,45,18.50
2020,07,10,12,46,18.50
2020,07,10,12,47,18.50
2020,07,10,12,48,18.50
2020,07,10,12,49,18.40
2020,07,10,12,50,18.40
2020,07,10,12,51,18.40
2020,07,10,12,52,18.40
2020,07,10,12,53,18.40
2020,07,10,12,54,18.50
2020,07,10,12,55,18.60
2020,07,10,12,56,18.60
2020,07,10,12,57,18.70
2020,07,10,12,58,18.70
2020,07,10,12,59,18.80
2020,07,10,13,00,18.80
2020,07,10,13,01,19.00
2020,07,10,13,02,19.10
2020,07,10,13,03,19.20
2020,07,10,13,04,19.30
2020,07,10,13,05,19.40
2020,07,10,13,06,19.50
2020,07,10,13,07,19.60
2020,07,10,13,08,19.70
2020,07,10,13,09,19.80
2020,07,10,13,10,19.90
2020,07,10,13,11,20.00
2020,07,10,13,12,20.00
2020,07,10,13,13,20.10
2020,07,10,13,14,20.10
2020,07,10,13,15,20.10
2020,07,10,13,16,20.00
2020,07,10,13,17,19.90
2020,07,10,13,18,19.80
2020,07,10,13,19,19.80
2020,07,10,13,20,19.70
2020,07,10,13,21,19.60
2020,07,10,13,22,19.50
2020,07,10,13,23,19.40
2020,07,10,13,24,19.40
2020,07,10,13,25,19.40
2020,07,10,13,26,19.30
2020,07,10,13,27,19.30
2020,07,10,13,28,19.30
2020,07,10,13,29,19.20
2020,07,10,13,30,19.10
2020,07,10,13,31,19.00
2020,07,10,13,32,19.00
2020,07,10,13,33,19.00
2020,07,10,13,34,19.00
2020,07,10,13,35,18.90
2020,07,10,13,36,18.90
2020,07,10,13,37,18.80
2020,07,10,13,38,18.70
2020,07,10,13,39,18.60
2020,07,10,13,40,18.60
2020,07,10,13,41,18.50
2020,07,10,13,42,18.50
2020,07,10,13,43,18.50
2020,07,10,13,44,18.50
2020,07,10,13,45,18.50
2020,07,10,13,46,18.50
2020,07,10,13,47,18.60
2020,07,10,13,48,18.60
2020,07,10,13,49,18.50
2020,07,10,13,50,18.50
2020,07,10,13,51,18.30
2020,07,10,13,52,18.30
2020,07,10,13,53,18.20
2020,07,10,13,54,18.10
2020,07,10,13,55,18.10
2020,07,10,13,56,18.10
2020,07,10,13,57,18.00
2020,07,10,13,58,17.90
2020,07,10,13,59,17.90
2020,07,10,14,00,17.90
2020,07,10,14,01,17.90
2020,07,10,14,02,17.80
2020,07,10,14,03,17.80
2020,07,10,14,04,17.80
2020,07,10,14,05,17.80
2020,07,10,14,06,17.90
2020,07,10,14,07,18.00
2020,07,10,14,08,18.10
2020,07,10,14,09,18.20
2020,07,10,14,10,18.30
2020,07,10,14,11,18.40
2020,07,10,14,12,18.50
2020,07,10,14,13,18.60
2020,07,10,14,14,18.70
2020,07,10,14,15,18.70
2020,07,10,14,16,18.70
2020,07,10,14,17,18.80
2020,07,10,14,18,18.80
2020,07,10,14,19,18.80
2020,07,10,14,20,18.80
2020,07,10,14,21,18.90
2020,07,10,14,22,18.90
2020,07,10,14,23,18.90
2020,07,10,14,24,18.90
2020,07,10,14,25,18.90
2020,07,10,14,26,18.80
2020,07,10,14,27,18.80
2020,07,10,14,28,18.80
2020,07,10,14,29,18.80
2020,07,10,14,30,18.90
2020,07,10,14,31,19.00
2020,07,10,14,32,19.10
2020,07,10,14,33,19.20
2020,07,10,14,34,19.20
2020,07,10,14,35,19.30
2020,07,10,14,36,19.30
2020,07,10,14,37,19.40
2020,07,10,14,38,19.40
2020,07,10,14,39,19.40
2020,07,10,14,40,19.40
2020,07,10,14,41,19.40
2020,07,10,14,42,19.40
2020,07,10,14,43,19.30
2020,07,10,14,44,19.40
2020,07,10,14,45,19.40
2020,07,10,14,46,19.40
2020,07,10,14,47,19.40
2020,07,10,14,48,19.30
2020,07,10,14,49,19.30
2020,07,10,14,50,19.30
2020,07,10,14,51,19.30
2020,07,10,14,52,19.30
2020,07,10,14,53,19.20
2020,07,10,14,54,19.20
2020,07,10,14,55,19.10
2020,07,10,14,56,19.00
2020,07,10,14,57,19.00
2020,07,10,14,58,18.90
2020,07,10,14,59,18.80
2020,07,10,15,00,18.80
2020,07,10,15,01,18.80
2020,07,10,15,02,18.70
2020,07,10,15,03,18.70
2020,07,10,15,04,18.60
2020,07,10,15,05,18.60
2020,07,10,15,06,18.70
2020,07,10,15,07,18.70
2020,07,10,15,08,18.70
2020,07,10,15,09,18.80
2020,07,10,15,10,18.80
2020,07,10,15,11,18.90
2020,07,10,15,12,18.90
2020,07,10,15,13,19.00
2020,07,10,15,14,19.00
2020,07,10,15,15,19.10
2020,07,10,15,16,19.10
2020,07,10,15,17,19.10
2020,07,10,15,18,19.00
2020,07,10,15,19,19.00
2020,07,10,15,20,19.00
2020,07,10,15,21,19.10
2020,07,10,15,22,19.10
2020,07,10,15,23,19.00
2020,07,10,15,24,19.00
2020,07,10,15,25,18.90
2020,07,10,15,26,18.90
2020,07,10,15,27,18.90
2020,07,10,15,28,18.90
2020,07,10,15,29,19.00
2020,07,10,15,30,19.00
2020,07,10,15,31,19.00
2020,07,10,15,32,19.00
2020,07,10,15,33,18.90
2020,07,10,15,34,18.90
2020,07,10,15,35,18.90
2020,07,10,15,36,18.90
2020,07,10,15,37,18.90
2020,07,10,15,38,18.90
2020,07,10,15,39,18.90
2020,07,10,15,40,18.90
2020,07,10,15,41,18.90
2020,07,10,15,42,18.90
2020,07,10,15,43,18.90
2020,07,10,15,44,18.90
2020,07,10,15,45,18.80
2020,07,10,15,46,18.80
2020,07,10,15,47,18.80
2020,07,10,15,48,18.70
2020,07,10,15,49,18.70
2020,07,10,15,50,18.60
2020,07,10,15,51,18.50
2020,07,10,15,52,18.40
2020,07,10,15,53,18.40
2020,07,10,15,54,18.40
2020,07,10,15,55,18.40
2020,07,10,15,56,18.40
2020,07,10,15,57,18.40
2020,07,10,15,58,18.50
2020,07,10,15,59,18.50
2020,07,10,16,00,18.50
2020,07,10,16,01,18.40
2020,07,10,16,02,18.40
2020,07,10,16,03,18.40
2020,07,10,16,04,18.40
2020,07,10,16,05,18.40
2020,07,10,16,06,18.40
2020,07,10,16,07,18.40
2020,07,10,16,08,18.40
2020,07,10,16,09,18.40
2020,07,10,16,10,18.40
2020,07,10,16,11,18.50
2020,07,10,16,12,18.50
2020,07,10,16,13,18.50
2020,07,10,16,14,18.50
2020,07,10,16,15,18.60
2020,07,10,16,16,18.60
2020,07,10,16,17,18.70
2020,07,10,16,18,18.70
2020,07,10,16,19,18.70
2020,07,10,16,20,18.70
2020,07,10,16,21,18.80
2020,07,10,16,22,18.80
2020,07,10,16,23,18.80
2020,07,10,16,24,18.80
2020,07,10,16,25,18.80
2020,07,10,16,26,18.90
2020,07,10,16,27,18.90
2020,07,10,16,28,19.00
2020,07,10,16,29,19.00
2020,07,10,16,30,18.90
2020,07,10,16,31,18.90
2020,07,10,16,32,19.00
2020,07,10,16,33,18.90
2020,07,10,16,34,18.90
2020,07,10,16,35,18.90
2020,07,10,16,36,18.90
2020,07,10,16,37,19.00
2020,07,10,16,38,19.00
2020,07,10,16,39,19.10
2020,07,10,16,40,19.10
2020,07,10,16,41,19.10
2020,07,10,16,42,19.20
2020,07,10,16,43,19.20
2020,07,10,16,44,19.20
2020,07,10,16,45,19.20
2020,07,10,16,46,19.30
2020,07,10,16,47,19.30
2020,07,10,16,48,19.30
2020,07,10,16,49,19.30
2020,07,10,16,50,19.30
2020,07,10,16,51,19.20
2020,07,10,16,52,19.20
2020,07,10,16,53,19.20
2020,07,10,16,54,19.20
2020,07,10,16,55,19.10
2020,07,10,16,56,19.10
2020,07,10,16,57,19.20
2020,07,10,16,58,19.20
2020,07,10,16,59,19.20
2020,07,10,17,00,19.20
2020,07,10,17,01,19.20
2020,07,10,17,02,19.20
2020,07,10,17,03,19.20
2020,07,10,17,04,19.20
2020,07,10,17,05,19.20
2020,07,10,17,06,19.10
2020,07,10,17,07,19.00
2020,07,10,17,08,19.00
2020,07,10,17,09,18.90
2020,07,10,17,10,18.90
2020,07,10,17,11,18.90
2020,07,10,17,12,18.80
2020,07,10,17,13,18.80
2020,07,10,17,14,18.80
2020,07,10,17,15,18.80
2020,07,10,17,16,18.80
2020,07,10,17,17,18.80
2020,07,10,17,18,18.80
2020,07,10,17,19,18.80
2020,07,10,17,20,18.70
2020,07,10,17,21,18.70
2020,07,10,17,22,18.70
2020,07,10,17,23,18.70
2020,07,10,17,24,18.70
2020,07,10,17,25,18.70
2020,07,10,17,26,18.70
2020,07,10,17,27,18.70
2020,07,10,17,28,18.70
2020,07,10,17,29,18.60
2020,07,10,17,30,18.60
2020,07,10,17,31,18.60
2020,07,10,17,32,18.50
2020,07,10,17,33,18.50
2020,07,10,17,34,18.40
2020,07,10,17,35,18.40
2020,07,10,17,36,18.30
2020,07,10,17,37,18.30
2020,07,10,17,38,18.30
2020,07,10,17,39,18.30
2020,07,10,17,40,18.30
2020,07,10,17,41,18.30
2020,07,10,17,42,18.30
2020,07,10,17,43,18.30
2020,07,10,17,44,18.30
2020,07,10,17,45,18.20
2020,07,10,17,46,18.30
2020,07,10,17,47,18.30
2020,07,10,17,48,18.30
2020,07,10,17,49,18.30
2020,07,10,17,50,18.40
2020,07,10,17,51,18.40
2020,07,10,17,52,18.40
2020,07,10,17,53,18.40
2020,07,10,17,54,18.50
2020,07,10,17,55,18.50
2020,07,10,17,56,18.50
2020,07,10,17,57,18.60
2020,07,10,17,58,18.60
2020,07,10,17,59,18.60
2020,07,10,18,00,18.60
2020,07,10,18,01,18.60
2020,07,10,18,02,18.60
2020,07,10,18,03,18.60
2020,07,10,18,04,18.50
2020,07,10,18,05,18.50
2020,07,10,18,06,18.40
2020,07,10,18,07,18.40
2020,07,10,18,08,18.40
2020,07,10,18,09,18.30
2020,07,10,18,10,18.30
2020,07,10,18,11,18.20
2020,07,10,18,12,18.20
2020,07,10,18,13,18.20
2020,07,10,18,14,18.20
2020,07,10,18,15,18.10
2020,07,10,18,16,18.10
2020,07,10,18,17,18.10
2020,07,10,18,18,18.10
2020,07,10,18,19,18.00
2020,07,10,18,20,18.00
2020,07,10,18,21,17.90
2020,07,10,18,22,17.90
2020,07,10,18,23,17.90
2020,07,10,18,24,17.90
2020,07,10,18,25,17.90
2020,07,10,18,26,17.90
2020,07,10,18,27,17.90
2020,07,10,18,28,17.90
2020,07,10,18,29,18.00
2020,07,10,18,30,17.90
2020,07,10,18,31,17.90
2020,07,10,18,32,17.90
2020,07,10,18,33,17.90
2020,07,10,18,34,18.00
2020,07,10,18,35,18.00
2020,07,10,18,36,18.00
2020,07,10,18,37,18.00
2020,07,10,18,38,18.00
2020,07,10,18,39,18.00
2020,07,10,18,40,18.00
2020,07,10,18,41,18.10
2020,07,10,18,42,18.00
2020,07,10,18,43,18.00
2020,07,10,18,44,18.00
2020,07,10,18,45,18.00
2020,07,10,18,46,18.00
2020,07,10,18,47,17.90
2020,07,10,18,48,17.90
2020,07,10,18,49,17.90
2020,07,10,18,50,17.90
2020,07,10,18,51,17.90
2020,07,10,18,52,17.90
2020,07,10,18,53,17.90
2020,07,10,18,54,18.00
2020,07,10,18,55,18.00
2020,07,10,18,56,18.00
2020,07,10,18,57,18.00
2020,07,10,18,58,18.00
2020,07,10,18,59,18.00
2020,07,10,19,00,17.90
2020,07,10,19,01,18.00
2020,07,10,19,02,17.90
2020,07,10,19,03,17.90
2020,07,10,19,04,17.90
2020,07,10,19,05,17.90
2020,07,10,19,06,17.90
2020,07,10,19,07,17.90
2020,07,10,19,08,17.90
2020,07,10,19,09,17.90
2020,07,10,19,10,17.90
2020,07,10,19,11,17.90
2020,07,10,19,12,17.90
2020,07,10,19,13,17.90
2020,07,10,19,14,17.90
2020,07,10,19,15,17.90
2020,07,10,19,16,17.90
2020,07,10,19,17,17.90
2020,07,10,19,18,17.90
2020,07,10,19,19,17.90
2020,07,10,19,20,17.90
2020,07,10,19,21,17.90
2020,07,10,19,22,17.90
2020,07,10,19,23,17.90
2020,07,10,19,24,17.90
2020,07,10,19,25,17.80
2020,07,10,19,26,17.80
2020,07,10,19,27,17.80
2020,07,10,19,28,17.80
2020,07,10,19,29,17.80
2020,07,10,19,30,17.80
2020,07,10,19,31,17.80
2020,07,10,19,32,17.80
2020,07,10,19,33,17.70
2020,07,10,19,34,17.70
2020,07,10,19,35,17.70
2020,07,10,19,36,17.70
2020,07,10,19,37,17.70
2020,07,10,19,38,17.60
2020,07,10,19,39,17.60
2020,07,10,19,40,17.60
2020,07,10,19,41,17.60
2020,07,10,19,42,17.60
2020,07,10,19,43,17.60
2020,07,10,19,44,17.50
2020,07,10,19,45,17.50
2020,07,10,19,46,17.50
2020,07,10,19,47,17.50
2020,07,10,19,48,17.50
2020,07,10,19,49,17.50
2020,07,10,19,50,17.40
2020,07,10,19,51,17.40
2020,07,10,19,52,17.40
2020,07,10,19,53,17.40
2020,07,10,19,54,17.40
2020,07,10,19,55,17.40
2020,07,10,19,56,17.40
2020,07,10,19,57,17.40
2020,07,10,19,58,17.40
2020,07,10,19,59,17.40
2020,07,10,20,00,17.40
2020,07,10,20,01,17.40
2020,07,10,20,02,17.40
2020,07,10,20,03,17.40
2020,07,10,20,04,17.30
2020,07,10,20,05,17.30
2020,07,10,20,06,17.30
2020,07,10,20,07,17.30
2020,07,10,20,08,17.30
2020,07,10,20,09,17.30
2020,07,10,20,10,17.30
2020,07,10,20,11,17.30
2020,07,10,20,12,17.20
2020,07,10,20,13,17.20
2020,07,10,20,14,17.20
2020,07,10,20,15,17.20
2020,07,10,20,16,17.20
2020,07,10,20,17,17.20
2020,07,10,20,18,17.20
2020,07,10,20,19,17.20
2020,07,10,20,20,17.20
2020,07,10,20,21,17.20
2020,07,10,20,22,17.20
2020,07,10,20,23,17.20
2020,07,10,20,24,17.20
2020,07,10,20,25,17.20
2020,07,10,20,26,17.20
2020,07,10,20,27,17.20
